TimeCDT,TemperatureF,Dew PointF,Humidity,Sea Level PressureIn,VisibilityMPH,Wind Direction,Wind SpeedMPH,Gust SpeedMPH,PrecipitationIn,Events,Conditions,WindDirDegrees,DateUTC
12:15 AM,46.4,35.8,67,30.26,10.0,East,6.9,-,N/A,,Clear,100,2013-10-29 05:15:00
12:35 AM,46.2,36.0,67,30.26,10.0,ESE,5.8,-,N/A,,Clear,110,2013-10-29 05:35:00
12:55 AM,46.4,35.6,66,30.25,10.0,East,6.9,-,N/A,,Clear,100,2013-10-29 05:55:00
1:15 AM,46.4,35.1,65,30.25,10.0,East,8.1,-,N/A,,Clear,90,2013-10-29 06:15:00
1:35 AM,46.8,34.9,63,30.26,10.0,ESE,8.1,-,N/A,,Clear,110,2013-10-29 06:35:00
1:55 AM,46.6,34.7,63,30.26,10.0,ESE,4.6,-,N/A,,Clear,120,2013-10-29 06:55:00
2:15 AM,46.4,34.3,63,30.26,10.0,ESE,4.6,-,N/A,,Clear,120,2013-10-29 07:15:00
2:35 AM,46.6,34.3,62,30.25,10.0,ESE,6.9,-,N/A,,Clear,110,2013-10-29 07:35:00
2:55 AM,45.7,34.2,64,30.25,10.0,ESE,6.9,-,N/A,,Clear,110,2013-10-29 07:55:00
3:15 AM,45.5,33.3,62,30.24,10.0,ESE,6.9,-,N/A,,Clear,120,2013-10-29 08:15:00
3:35 AM,44.2,32.9,64,30.25,10.0,ESE,5.8,-,N/A,,Clear,110,2013-10-29 08:35:00
3:55 AM,42.8,33.1,69,30.24,10.0,East,6.9,-,N/A,,Clear,100,2013-10-29 08:55:00
4:15 AM,42.1,33.4,71,30.24,10.0,East,6.9,-,N/A,,Clear,100,2013-10-29 09:15:00
4:55 AM,42.8,33.3,69,30.25,10.0,East,8.1,-,N/A,,Clear,100,2013-10-29 09:55:00
5:55 AM,43.3,33.3,68,30.25,10.0,East,6.9,-,N/A,,Clear,90,2013-10-29 10:55:00
6:55 AM,43.7,33.4,67,30.23,10.0,East,8.1,-,N/A,,Clear,100,2013-10-29 11:55:00
7:55 AM,45.0,34.0,65,30.25,10.0,East,6.9,-,N/A,,Clear,100,2013-10-29 12:55:00
8:35 AM,45.3,34.9,67,30.25,10.0,East,6.9,-,N/A,,Clear,100,2013-10-29 13:35:00
9:35 AM,47.7,35.4,63,30.26,10.0,ESE,8.1,-,N/A,,Scattered Clouds,120,2013-10-29 14:35:00
9:55 AM,48.2,35.8,62,30.26,10.0,SE,6.9,-,N/A,,Clear,130,2013-10-29 14:55:00
10:15 AM,49.1,36.1,61,30.25,10.0,ESE,9.2,-,N/A,,Clear,120,2013-10-29 15:15:00
10:35 AM,49.6,37.9,64,30.25,10.0,ESE,8.1,-,N/A,,Clear,120,2013-10-29 15:35:00
10:55 AM,49.8,39.0,66,30.25,10.0,ESE,6.9,-,N/A,,Scattered Clouds,120,2013-10-29 15:55:00
11:14 AM,50.0,41.0,71,30.25,10.0,SE,6.9,-,N/A,,Mostly Cloudy,130,2013-10-29 16:14:00
11:15 AM,50.2,40.5,69,30.25,10.0,SE,6.9,-,N/A,,Mostly Cloudy,130,2013-10-29 16:15:00
11:35 AM,50.5,41.4,71,30.25,10.0,SSE,4.6,-,N/A,Rain,Light Rain,150,2013-10-29 16:35:00
11:55 AM,50.2,44.2,80,30.25,10.0,SSE,6.9,-,N/A,Rain,Light Rain,160,2013-10-29 16:55:00
12:15 PM,49.5,45.1,85,30.24,10.0,SSE,6.9,-,N/A,Rain,Light Rain,160,2013-10-29 17:15:00
12:35 PM,49.3,46.4,90,30.21,7.0,SSE,8.1,-,N/A,Rain,Light Rain,150,2013-10-29 17:35:00
12:55 PM,50.2,48.6,94,30.19,7.0,SSE,10.4,-,N/A,,Light Drizzle,150,2013-10-29 17:55:00
1:15 PM,51.3,49.8,95,30.17,5.0,SSE,9.2,-,N/A,Rain,Light Rain,150,2013-10-29 18:15:00
1:35 PM,51.8,50.4,95,30.15,5.0,SSE,8.1,-,N/A,Rain,Light Rain,150,2013-10-29 18:35:00
1:55 PM,52.2,51.1,96,30.15,5.0,SSE,10.4,-,N/A,Rain,Light Rain,160,2013-10-29 18:55:00
2:15 PM,52.7,51.6,96,30.14,4.0,South,11.5,17.3,N/A,,Mostly Cloudy,170,2013-10-29 19:15:00
2:35 PM,53.4,52.3,96,30.13,4.0,SSE,9.2,-,N/A,,Mostly Cloudy,160,2013-10-29 19:35:00
2:55 PM,53.8,52.7,96,30.13,5.0,South,11.5,-,N/A,,Mostly Cloudy,170,2013-10-29 19:55:00
3:15 PM,54.1,52.9,95,30.12,5.0,SSE,9.2,-,N/A,,Mostly Cloudy,160,2013-10-29 20:15:00
3:35 PM,54.0,52.7,95,30.12,5.0,SE,5.8,-,N/A,,Overcast,140,2013-10-29 20:35:00
3:55 PM,54.1,52.7,95,30.12,5.0,SE,5.8,-,N/A,,Overcast,130,2013-10-29 20:55:00
4:15 PM,54.5,52.9,94,30.13,5.0,ESE,4.6,-,N/A,,Overcast,110,2013-10-29 21:15:00
4:35 PM,54.5,53.1,95,30.12,4.0,East,6.9,-,N/A,Rain,Light Rain,100,2013-10-29 21:35:00
4:55 PM,54.1,53.1,96,30.12,4.0,ESE,5.8,-,N/A,,Light Drizzle,110,2013-10-29 21:55:00
5:15 PM,54.0,53.1,97,30.12,3.0,East,5.8,-,N/A,,Overcast,100,2013-10-29 22:15:00
5:35 PM,54.0,53.2,97,30.11,1.5,ESE,6.9,-,N/A,,Overcast,110,2013-10-29 22:35:00
5:55 PM,53.8,53.2,98,30.11,2.0,ESE,9.2,-,N/A,,Overcast,120,2013-10-29 22:55:00
6:15 PM,53.8,53.2,98,30.11,2.0,ESE,8.1,-,N/A,Rain,Rain,120,2013-10-29 23:15:00
6:35 PM,53.6,53.2,99,30.10,2.0,ESE,10.4,-,N/A,,Light Drizzle,120,2013-10-29 23:35:00
6:55 PM,53.6,53.2,99,30.10,2.5,ESE,10.4,-,N/A,,Light Drizzle,120,2013-10-29 23:55:00
7:15 PM,53.8,53.2,98,30.11,3.0,ESE,8.1,-,N/A,Rain,Light Rain,110,2013-10-30 00:15:00
7:35 PM,53.8,53.2,98,30.11,2.5,ESE,5.8,-,N/A,,Light Drizzle,110,2013-10-30 00:35:00
7:55 PM,53.8,53.2,98,30.10,2.5,ESE,5.8,-,N/A,,Overcast,110,2013-10-30 00:55:00
8:15 PM,53.8,53.2,98,30.10,2.5,ESE,9.2,-,N/A,,Overcast,110,2013-10-30 01:15:00
8:35 PM,53.8,53.4,99,30.11,4.0,SE,9.2,-,N/A,,Overcast,130,2013-10-30 01:35:00
8:55 PM,53.8,53.2,98,30.10,3.0,SE,9.2,-,N/A,,Overcast,130,2013-10-30 01:55:00
9:15 PM,53.8,53.6,99,30.10,3.0,SE,9.2,-,N/A,,Overcast,130,2013-10-30 02:15:00
9:35 PM,53.8,53.6,99,30.10,2.5,SE,8.1,-,N/A,,Overcast,130,2013-10-30 02:35:00
9:55 PM,53.8,53.6,99,30.10,2.5,SE,9.2,-,N/A,,Overcast,130,2013-10-30 02:55:00
10:15 PM,53.8,53.6,99,30.11,2.5,SE,6.9,-,N/A,,Overcast,130,2013-10-30 03:15:00
10:35 PM,53.8,53.6,99,30.10,2.0,ESE,8.1,-,N/A,Rain,Light Rain,120,2013-10-30 03:35:00
10:55 PM,54.0,53.8,99,30.09,2.0,ESE,9.2,-,N/A,Rain,Light Rain,120,2013-10-30 03:55:00
11:15 PM,54.0,53.8,99,30.09,2.5,ESE,6.9,-,N/A,,Overcast,120,2013-10-30 04:15:00
11:35 PM,54.1,54.0,99,30.08,3.0,ESE,8.1,-,N/A,Rain,Rain,120,2013-10-30 04:35:00
11:55 PM,54.3,54.0,99,30.08,1.8,ESE,6.9,-,N/A,Rain,Heavy Rain,110,2013-10-30 04:55:00